contact:dominique.lefevre@mio.osupytheas.fr, maurice.libes@osupytheas.fr, didier.mallarino@osupytheas.fr
Project:EMSO http://www.emso-fr.org/EMSO-France
Depth: 2436.0 m
Title:EMSO Ligure Ouest : Data MII capteur AQUADOPP
Date,Latitude,Longitude,X_East,Y_North,Z_Up,Amplitude_X,Amplitude_Y,Amplitude_Z,Batterie,SoundSpeed,Heading,Pitch,Roll,Pressure,TIS,Speed,Direction
, degrees North, degrees East, m.s-1, m.s-1,m.s-1, 1, 1, 1, Volt, m.s-1, degree, degree, degree, dbar, degree_C, m.s-1, degree
2021-12-18T00:04:03,42.805,6.029,0.01,0.014,0.04,101.0,104.0,100.0,13.4,1505.2,325.2,-0.8,1.8,2470.552,13.28,0.017,35.5
2021-12-18T00:07:03,42.805,6.029,-0.032,0.032,-0.013,101.0,105.0,101.0,13.4,1505.2,331.0,-0.8,1.8,2470.553,13.28,0.045,315.0
2021-12-18T00:10:03,42.805,6.029,-0.01,0.025,0.024,101.0,104.0,100.0,13.4,1505.2,327.5,-0.7,1.8,2470.506,13.28,0.026,338.2
2021-12-18T00:13:03,42.805,6.029,0.022,0.034,0.011,101.0,104.0,100.0,13.4,1505.2,331.2,-0.7,1.8,2470.528,13.28,0.04,32.9
2021-12-18T00:16:03,42.805,6.029,-0.011,0.027,0.025,101.0,103.0,101.0,13.4,1505.2,329.1,-0.8,1.8,2470.512,13.28,0.029,337.8
2021-12-18T00:19:03,42.805,6.029,-0.012,0.024,0.019,101.0,102.0,100.0,13.4,1505.2,331.2,-0.8,1.8,2470.534,13.28,0.026,333.4
2021-12-18T00:22:03,42.805,6.029,-0.008,0.037,0.001,101.0,103.0,101.0,13.4,1505.2,326.0,-0.8,1.8,2470.504,13.28,0.037,347.8
2021-12-18T00:25:03,42.805,6.029,0.024,0.038,0.044,101.0,104.0,101.0,13.4,1505.2,328.7,-0.8,1.8,2470.555,13.28,0.044,32.3
2021-12-18T00:28:03,42.805,6.029,-0.028,0.035,0.014,99.0,103.0,101.0,13.3,1505.2,325.9,-0.7,1.8,2470.551,13.29,0.044,321.3
2021-12-18T00:31:03,42.805,6.029,-0.007,0.036,0.012,103.0,103.0,101.0,13.4,1505.2,326.9,-0.8,1.8,2470.5,13.28,0.036,349.0
2021-12-18T00:34:03,42.805,6.029,0.006,0.027,0.018,102.0,101.0,100.0,13.4,1505.2,329.9,-0.8,1.8,2470.513,13.29,0.027,12.5
2021-12-18T00:37:03,42.805,6.029,0.008,0.013,-0.032,100.0,103.0,101.0,13.4,1505.2,329.0,-0.8,1.8,2470.499,13.29,0.015,31.6
2021-12-18T00:40:03,42.805,6.029,-0.011,0.023,0.0,103.0,102.0,101.0,13.3,1505.2,328.8,-0.7,1.8,2470.509,13.28,0.025,334.4
2021-12-18T00:43:03,42.805,6.029,-0.01,0.028,0.017,101.0,103.0,101.0,13.4,1505.2,331.7,-0.7,1.8,2470.535,13.29,0.029,340.4
2021-12-18T00:46:03,42.805,6.029,-0.056,0.032,-0.016,101.0,103.0,100.0,13.4,1505.2,329.0,-0.7,1.8,2470.506,13.29,0.064,299.7
2021-12-18T00:49:03,42.805,6.029,-0.027,0.041,0.002,101.0,101.0,100.0,13.3,1505.2,324.1,-0.7,1.8,2470.498,13.28,0.049,326.6
2021-12-18T00:52:03,42.805,6.029,0.019,0.008,0.008,100.0,103.0,100.0,13.3,1505.2,329.4,-0.8,1.8,2470.486,13.28,0.02,67.2
2021-12-18T00:55:03,42.805,6.029,-0.01,0.023,0.001,100.0,104.0,100.0,13.4,1505.2,327.2,-0.8,1.8,2470.492,13.28,0.025,336.5
2021-12-18T00:58:03,42.805,6.029,-0.02,0.049,0.002,101.0,104.0,100.0,13.3,1505.2,329.0,-0.7,1.8,2470.549,13.28,0.052,337.8
2021-12-18T01:04:03,42.805,6.029,-0.001,0.008,-0.035,104.0,103.0,102.0,13.4,1505.2,327.9,-0.8,1.8,2470.53,13.28,0.008,352.9
2021-12-18T01:07:03,42.805,6.029,-0.008,0.01,0.0,103.0,100.0,100.0,13.4,1505.2,326.7,-0.7,1.8,2470.499,13.28,0.012,321.3
2021-12-18T01:10:03,42.805,6.029,-0.014,0.031,0.012,99.0,104.0,100.0,13.4,1505.2,329.4,-0.7,1.8,2470.499,13.28,0.034,335.7
2021-12-18T01:13:03,42.805,6.029,-0.016,0.032,-0.002,101.0,103.0,100.0,13.4,1505.2,325.9,-0.7,1.8,2470.518,13.28,0.035,333.4
2021-12-18T01:16:03,42.805,6.029,-0.028,0.017,-0.006,101.0,103.0,99.0,13.4,1505.2,326.6,-0.8,1.8,2470.521,13.28,0.032,301.3
2021-12-18T01:19:03,42.805,6.029,-0.009,0.035,0.036,102.0,103.0,100.0,13.3,1505.2,325.0,-0.8,1.8,2470.507,13.28,0.036,345.6
2021-12-18T01:22:03,42.805,6.029,-0.017,0.033,0.013,100.0,103.0,100.0,13.4,1505.2,326.2,-0.8,1.8,2470.541,13.28,0.037,332.7
2021-12-18T01:25:03,42.805,6.029,-0.018,0.055,0.043,101.0,103.0,101.0,13.4,1505.2,329.4,-0.8,1.8,2470.496,13.28,0.057,341.9
2021-12-18T01:28:03,42.805,6.029,-0.028,0.047,-0.01,100.0,103.0,100.0,13.4,1505.2,328.4,-0.7,1.8,2470.494,13.28,0.054,329.2
2021-12-18T01:31:03,42.805,6.029,-0.001,0.037,0.048,102.0,104.0,100.0,13.4,1505.2,325.2,-0.7,1.9,2470.515,13.28,0.037,358.5
2021-12-18T01:34:03,42.805,6.029,-0.023,0.056,0.024,99.0,101.0,101.0,13.4,1505.2,328.4,-0.8,1.8,2470.528,13.28,0.06,337.7
2021-12-18T01:37:03,42.805,6.029,-0.024,0.053,0.012,101.0,103.0,100.0,13.3,1505.2,329.9,-0.8,1.8,2470.517,13.28,0.058,335.6
2021-12-18T01:40:03,42.805,6.029,-0.019,0.027,-0.008,102.0,104.0,99.0,13.3,1505.2,326.1,-0.8,1.8,2470.521,13.28,0.033,324.9
2021-12-18T01:43:03,42.805,6.029,-0.006,0.018,-0.008,101.0,102.0,100.0,13.4,1505.2,326.0,-0.8,1.8,2470.508,13.28,0.018,341.6
2021-12-18T01:46:03,42.805,6.029,-0.031,0.05,0.031,101.0,103.0,100.0,13.4,1505.2,329.3,-0.8,1.8,2470.486,13.28,0.058,328.2
2021-12-18T01:49:03,42.805,6.029,-0.013,0.02,-0.018,100.0,103.0,100.0,13.4,1505.2,329.6,-0.8,1.8,2470.559,13.28,0.023,327.0
2021-12-18T01:52:03,42.805,6.029,-0.001,0.041,0.008,101.0,101.0,101.0,13.3,1505.2,329.7,-0.7,1.8,2470.498,13.28,0.041,358.6
2021-12-18T01:55:03,42.805,6.029,0.013,0.03,0.0,101.0,102.0,100.0,13.4,1505.2,328.5,-0.8,1.8,2470.561,13.28,0.032,23.4
2021-12-18T01:58:03,42.805,6.029,0.004,0.025,0.022,102.0,100.0,100.0,13.3,1505.2,328.4,-0.7,1.8,2470.484,13.28,0.025,9.1
2021-12-18T02:04:03,42.805,6.029,-0.02,0.029,0.02,101.0,103.0,100.0,13.4,1505.2,330.3,-0.8,1.8,2470.555,13.28,0.035,325.4
2021-12-18T02:07:03,42.805,6.029,0.0,0.042,0.033,102.0,103.0,100.0,13.4,1505.2,326.2,-0.8,1.8,2470.494,13.28,0.042,0.0
2021-12-18T02:10:03,42.805,6.029,-0.017,0.028,-0.006,101.0,103.0,100.0,13.4,1505.2,325.0,-0.7,1.8,2470.52,13.28,0.032,328.7
2021-12-18T02:13:03,42.805,6.029,-0.014,0.035,0.016,102.0,103.0,100.0,13.4,1505.2,328.1,-0.8,1.8,2470.549,13.28,0.037,338.2
2021-12-18T02:16:03,42.805,6.029,-0.027,0.035,0.0,101.0,102.0,101.0,13.3,1505.2,330.8,-0.8,1.8,2470.572,13.28,0.044,322.3
2021-12-18T02:19:03,42.805,6.029,-0.006,0.021,0.01,103.0,102.0,100.0,13.4,1505.2,325.7,-0.8,1.8,2470.531,13.28,0.021,344.1
2021-12-18T02:22:03,42.805,6.029,-0.017,0.026,-0.023,100.0,101.0,100.0,13.4,1505.2,330.6,-0.7,1.8,2470.584,13.28,0.031,326.8
2021-12-18T02:25:03,42.805,6.029,-0.013,0.036,0.034,102.0,102.0,100.0,13.4,1505.2,329.8,-0.8,1.8,2470.543,13.28,0.038,340.1
2021-12-18T02:28:03,42.805,6.029,-0.006,0.045,0.008,101.0,103.0,99.0,13.3,1505.2,330.6,-0.7,1.8,2470.572,13.28,0.045,352.4
2021-12-18T02:31:03,42.805,6.029,-0.021,0.012,-0.008,102.0,103.0,100.0,13.4,1505.2,325.8,-0.8,1.8,2470.547,13.28,0.024,299.7
2021-12-18T02:34:03,42.805,6.029,-0.013,0.042,0.035,101.0,102.0,99.0,13.3,1505.2,328.8,-0.8,1.8,2470.528,13.28,0.043,342.8
2021-12-18T02:37:03,42.805,6.029,-0.024,0.031,0.021,101.0,104.0,100.0,13.4,1505.2,326.6,-0.8,1.8,2470.53,13.28,0.039,322.3
2021-12-18T02:40:03,42.805,6.029,-0.02,0.029,-0.008,102.0,103.0,99.0,13.3,1505.2,329.9,-0.7,1.8,2470.514,13.28,0.035,325.4
2021-12-18T02:43:03,42.805,6.029,-0.019,0.034,-0.019,101.0,103.0,100.0,13.4,1505.2,324.7,-0.7,1.8,2470.535,13.28,0.038,330.8
2021-12-18T02:46:03,42.805,6.029,-0.022,0.054,0.014,101.0,102.0,100.0,13.3,1505.2,329.2,-0.7,1.9,2470.542,13.28,0.058,337.8
2021-12-18T02:49:03,42.805,6.029,-0.046,0.032,0.008,101.0,102.0,99.0,13.3,1505.2,326.0,-0.7,1.8,2470.554,13.28,0.056,304.8
2021-12-18T02:52:03,42.805,6.029,-0.016,0.018,0.017,101.0,102.0,100.0,13.4,1505.2,327.4,-0.7,1.8,2470.561,13.28,0.024,318.4
2021-12-18T02:55:03,42.805,6.029,-0.024,0.016,-0.015,101.0,102.0,101.0,13.4,1505.2,329.5,-0.8,1.8,2470.581,13.28,0.028,303.7
2021-12-18T02:58:03,42.805,6.029,-0.007,0.028,0.021,101.0,103.0,100.0,13.4,1505.2,329.5,-0.8,1.8,2470.543,13.28,0.028,346.0
2021-12-18T03:04:03,42.805,6.029,-0.005,0.033,0.02,99.0,102.0,101.0,13.4,1505.2,330.3,-0.7,1.8,2470.564,13.28,0.033,351.4
2021-12-18T03:07:03,42.805,6.029,0.007,0.04,0.029,102.0,103.0,100.0,13.4,1505.2,324.9,-0.7,1.8,2470.572,13.28,0.04,9.9
2021-12-18T03:10:03,42.805,6.029,-0.026,0.021,-0.012,101.0,102.0,100.0,13.4,1505.2,328.3,-0.8,1.8,2470.555,13.28,0.033,308.9
2021-12-18T03:13:03,42.805,6.029,-0.011,0.027,0.023,101.0,102.0,99.0,13.4,1505.2,327.6,-0.7,1.8,2470.539,13.28,0.029,337.8
2021-12-18T03:16:03,42.805,6.029,-0.023,0.038,0.005,100.0,103.0,100.0,13.4,1505.2,329.9,-0.7,1.8,2470.584,13.28,0.044,328.8
2021-12-18T03:19:03,42.805,6.029,-0.03,0.028,0.011,102.0,102.0,100.0,13.3,1505.2,329.0,-0.7,1.8,2470.593,13.28,0.041,313.0
2021-12-18T03:22:03,42.805,6.029,0.019,0.027,0.027,102.0,102.0,100.0,13.3,1505.2,331.3,-0.8,1.8,2470.585,13.28,0.033,35.1
2021-12-18T03:25:03,42.805,6.029,-0.002,0.013,0.005,101.0,101.0,99.0,13.3,1505.2,324.9,-0.7,1.8,2470.568,13.28,0.013,351.3
2021-12-18T03:28:03,42.805,6.029,-0.038,0.027,-0.009,100.0,102.0,102.0,13.3,1505.2,329.1,-0.8,1.8,2470.62,13.28,0.046,305.4
2021-12-18T03:31:03,42.805,6.029,-0.033,0.037,0.029,100.0,102.0,101.0,13.4,1505.2,326.5,-0.8,1.8,2470.581,13.28,0.049,318.3
2021-12-18T03:34:03,42.805,6.029,-0.012,0.042,0.002,101.0,102.0,100.0,13.3,1505.2,329.4,-0.8,1.8,2470.598,13.28,0.043,344.1
2021-12-18T03:37:03,42.805,6.029,-0.022,0.025,0.016,102.0,102.0,100.0,13.4,1505.2,327.1,-0.7,1.8,2470.579,13.28,0.033,318.7
2021-12-18T03:40:03,42.805,6.029,0.003,0.014,-0.015,100.0,103.0,100.0,13.4,1505.2,328.6,-0.8,1.8,2470.562,13.28,0.014,12.1
2021-12-18T03:43:03,42.805,6.029,-0.031,0.026,-0.024,102.0,103.0,100.0,13.4,1505.2,326.5,-0.8,1.8,2470.569,13.28,0.04,310.0
2021-12-18T03:46:03,42.805,6.029,-0.005,0.032,-0.01,102.0,101.0,100.0,13.3,1505.2,331.0,-0.7,1.8,2470.587,13.28,0.032,351.1
2021-12-18T03:49:03,42.805,6.029,-0.002,0.022,0.008,101.0,102.0,100.0,13.4,1505.2,325.1,-0.7,1.8,2470.594,13.28,0.022,354.8
2021-12-18T03:52:03,42.805,6.029,-0.036,0.051,0.021,102.0,101.0,101.0,13.3,1505.2,327.3,-0.7,1.8,2470.6,13.28,0.062,324.8
2021-12-18T03:55:03,42.805,6.029,-0.002,0.019,0.025,102.0,102.0,99.0,13.4,1505.2,329.4,-0.8,1.9,2470.637,13.28,0.019,354.0
2021-12-18T03:58:03,42.805,6.029,-0.011,0.024,0.03,101.0,102.0,100.0,13.4,1505.2,328.5,-0.7,1.8,2470.595,13.28,0.026,335.4
2021-12-18T04:04:03,42.805,6.029,-0.005,0.03,0.013,100.0,103.0,100.0,13.4,1505.2,327.4,-0.8,1.8,2470.637,13.28,0.03,350.5
2021-12-18T04:07:03,42.805,6.029,-0.003,0.04,0.026,101.0,103.0,100.0,13.4,1505.2,326.2,-0.7,1.8,2470.642,13.28,0.04,355.7
2021-12-18T04:10:03,42.805,6.029,-0.015,0.034,0.007,100.0,102.0,100.0,13.3,1505.2,331.5,-0.8,1.8,2470.648,13.28,0.037,336.2
2021-12-18T04:13:03,42.805,6.029,-0.009,0.017,0.004,102.0,102.0,99.0,13.4,1505.2,329.9,-0.8,1.8,2470.639,13.28,0.019,332.1
2021-12-18T04:16:03,42.805,6.029,-0.026,0.038,-0.014,101.0,102.0,100.0,13.4,1505.2,325.7,-0.7,1.8,2470.635,13.28,0.046,325.6
2021-12-18T04:19:03,42.805,6.029,-0.025,0.017,-0.002,101.0,101.0,100.0,13.3,1505.2,328.0,-0.8,1.8,2470.663,13.28,0.03,304.2
2021-12-18T04:22:03,42.805,6.029,-0.018,0.03,0.02,102.0,102.0,100.0,13.3,1505.2,331.5,-0.7,1.8,2470.612,13.28,0.034,329.0
2021-12-18T04:25:03,42.805,6.029,-0.011,0.032,0.001,101.0,101.0,101.0,13.4,1505.2,324.3,-0.7,1.8,2470.645,13.28,0.033,341.0
2021-12-18T04:28:03,42.805,6.029,0.004,0.026,0.008,102.0,102.0,101.0,13.4,1505.2,328.0,-0.7,1.8,2470.657,13.28,0.026,8.7
2021-12-18T04:31:03,42.805,6.029,-0.041,0.044,-0.022,101.0,101.0,100.0,13.3,1505.2,332.4,-0.8,1.8,2470.627,13.28,0.06,317.0
2021-12-18T04:34:03,42.805,6.029,0.001,0.039,0.002,101.0,102.0,103.0,13.4,1505.2,326.3,-0.8,1.8,2470.671,13.28,0.039,1.5
2021-12-18T04:37:03,42.805,6.029,-0.009,0.018,0.022,103.0,99.0,100.0,13.3,1505.2,329.2,-0.8,1.8,2470.64,13.28,0.02,333.4
2021-12-18T04:40:03,42.805,6.029,-0.002,0.029,0.012,101.0,101.0,100.0,13.3,1505.2,329.1,-0.7,1.8,2470.669,13.28,0.029,356.1
2021-12-18T04:43:03,42.805,6.029,-0.03,0.028,0.0,101.0,101.0,101.0,13.3,1505.2,326.4,-0.7,1.8,2470.669,13.28,0.041,313.0
2021-12-18T04:46:03,42.805,6.029,0.002,0.02,0.015,102.0,100.0,101.0,13.4,1505.2,326.0,-0.8,1.8,2470.651,13.28,0.02,5.7
2021-12-18T04:49:03,42.805,6.029,-0.021,0.024,0.0,100.0,102.0,100.0,13.4,1505.2,326.7,-0.8,1.8,2470.651,13.28,0.031,318.8
2021-12-18T04:52:03,42.805,6.029,-0.011,0.022,0.023,100.0,103.0,100.0,13.4,1505.2,330.9,-0.7,1.8,2470.703,13.28,0.024,333.4
2021-12-18T04:55:03,42.805,6.029,-0.018,0.026,0.016,101.0,102.0,101.0,13.4,1505.2,324.2,-0.8,1.8,2470.686,13.28,0.031,325.3
2021-12-18T04:58:03,42.805,6.029,-0.038,0.041,-0.022,101.0,102.0,100.0,13.4,1505.2,325.0,-0.8,1.8,2470.675,13.28,0.055,317.2
2021-12-18T05:04:03,42.805,6.029,-0.016,0.035,0.018,102.0,100.0,101.0,13.4,1505.2,329.9,-0.8,1.8,2470.689,13.28,0.038,335.4
2021-12-18T05:07:03,42.805,6.029,-0.009,0.006,0.009,101.0,103.0,99.0,13.3,1505.2,324.6,-0.7,1.8,2470.73,13.28,0.01,303.7
2021-12-18T05:10:03,42.805,6.029,-0.018,0.026,-0.002,100.0,103.0,98.0,13.4,1505.2,327.8,-0.8,1.8,2470.712,13.28,0.031,325.3
2021-12-18T05:13:03,42.805,6.029,0.0,0.03,0.02,101.0,102.0,100.0,13.3,1505.2,324.8,-0.8,1.8,2470.702,13.28,0.03,0.0
2021-12-18T05:16:03,42.805,6.029,-0.021,0.021,0.036,101.0,102.0,100.0,13.3,1505.2,326.6,-0.7,1.8,2470.717,13.28,0.029,315.0
2021-12-18T05:19:03,42.805,6.029,-0.027,0.047,0.014,103.0,100.0,100.0,13.4,1505.2,330.4,-0.7,1.8,2470.676,13.28,0.054,330.1
2021-12-18T05:22:03,42.805,6.029,-0.028,0.019,0.01,101.0,101.0,100.0,13.4,1505.2,324.1,-0.8,1.8,2470.743,13.28,0.033,304.2
2021-12-18T05:25:03,42.805,6.029,-0.023,0.028,-0.026,101.0,103.0,99.0,13.4,1505.2,329.8,-0.8,1.8,2470.669,13.28,0.036,320.6
2021-12-18T05:28:03,42.805,6.029,-0.018,0.048,-0.005,102.0,101.0,101.0,13.3,1505.2,325.9,-0.8,1.8,2470.685,13.28,0.051,339.4
2021-12-18T05:31:03,42.805,6.029,-0.04,0.01,0.0,101.0,101.0,100.0,13.3,1505.2,328.2,-0.7,1.8,2470.727,13.28,0.041,284.0
2021-12-18T05:34:03,42.805,6.029,-0.026,0.039,-0.015,101.0,101.0,100.0,13.3,1505.2,328.0,-0.7,1.8,2470.703,13.28,0.046,326.3
2021-12-18T05:37:03,42.805,6.029,-0.044,0.05,0.008,99.0,103.0,100.0,13.4,1505.2,327.7,-0.7,1.8,2470.685,13.28,0.066,318.7
2021-12-18T05:40:03,42.805,6.029,-0.023,0.037,0.02,100.0,101.0,100.0,13.4,1505.2,329.9,-0.8,1.8,2470.73,13.28,0.043,328.1
2021-12-18T05:43:03,42.805,6.029,-0.003,0.015,-0.016,100.0,101.0,101.0,13.3,1505.2,331.5,-0.8,1.8,2470.681,13.28,0.015,348.7
2021-12-18T05:46:03,42.805,6.029,-0.009,0.038,0.008,100.0,102.0,100.0,13.3,1505.2,331.2,-0.8,1.8,2470.706,13.28,0.039,346.7
2021-12-18T05:49:03,42.805,6.029,-0.025,0.03,0.004,102.0,102.0,100.0,13.4,1505.2,326.0,-0.8,1.8,2470.715,13.28,0.039,320.2
2021-12-18T05:52:03,42.805,6.029,-0.016,0.021,0.015,101.0,101.0,100.0,13.4,1505.2,329.3,-0.7,1.8,2470.744,13.28,0.026,322.7
2021-12-18T05:55:03,42.805,6.029,-0.028,0.027,-0.001,100.0,100.0,101.0,13.4,1505.2,325.0,-0.8,1.8,2470.76,13.28,0.038,314.0
2021-12-18T05:58:03,42.805,6.029,-0.01,0.014,-0.003,101.0,101.0,101.0,13.3,1505.2,331.3,-0.8,1.8,2470.705,13.28,0.017,324.5
2021-12-18T06:04:03,42.805,6.029,-0.037,0.048,0.011,101.0,102.0,100.0,13.4,1505.2,326.7,-0.8,1.8,2470.751,13.28,0.06,322.4
2021-12-18T06:07:03,42.805,6.029,-0.007,0.013,0.017,100.0,101.0,99.0,13.3,1505.2,329.6,-0.7,1.8,2470.741,13.28,0.014,331.7
2021-12-18T06:10:03,42.805,6.029,-0.02,0.039,0.016,100.0,101.0,100.0,13.3,1505.2,325.2,-0.8,1.8,2470.794,13.28,0.043,332.9
2021-12-18T06:13:03,42.805,6.029,-0.032,0.026,0.003,101.0,102.0,100.0,13.4,1505.2,326.3,-0.7,1.8,2470.752,13.28,0.041,309.1
2021-12-18T06:16:03,42.805,6.029,-0.048,0.017,-0.011,102.0,102.0,100.0,13.3,1505.2,324.5,-0.8,1.8,2470.76,13.28,0.05,289.5
2021-12-18T06:19:03,42.805,6.029,-0.016,0.022,0.005,101.0,101.0,100.0,13.3,1505.2,327.1,-0.7,1.8,2470.727,13.28,0.027,324.0
2021-12-18T06:22:03,42.805,6.029,-0.021,0.01,-0.011,101.0,100.0,100.0,13.4,1505.2,324.4,-0.7,1.8,2470.754,13.28,0.023,295.5
2021-12-18T06:25:03,42.805,6.029,0.0,0.028,-0.011,102.0,100.0,100.0,13.3,1505.2,327.6,-0.8,1.8,2470.716,13.28,0.028,0.0
2021-12-18T06:28:03,42.805,6.029,-0.01,0.027,-0.01,100.0,104.0,100.0,13.4,1505.2,331.5,-0.7,1.8,2470.756,13.28,0.028,339.7
2021-12-18T06:31:03,42.805,6.029,-0.002,0.023,0.006,103.0,102.0,100.0,13.4,1505.2,331.4,-0.8,1.8,2470.718,13.29,0.023,355.0
2021-12-18T06:34:03,42.805,6.029,-0.036,0.007,-0.013,101.0,104.0,99.0,13.3,1505.2,327.3,-0.8,1.8,2470.76,13.28,0.036,281.0
2021-12-18T06:37:03,42.805,6.029,-0.012,0.02,0.008,102.0,100.0,99.0,13.4,1505.2,324.1,-0.8,1.8,2470.718,13.28,0.023,329.0
2021-12-18T06:40:03,42.805,6.029,-0.012,0.031,0.029,102.0,101.0,100.0,13.4,1505.2,325.7,-0.7,1.8,2470.717,13.28,0.033,338.8
2021-12-18T06:43:03,42.805,6.029,-0.032,0.051,0.027,105.0,102.0,100.0,13.3,1505.2,329.6,-0.7,1.8,2470.762,13.28,0.06,327.9
2021-12-18T06:46:03,42.805,6.029,-0.033,0.034,-0.006,102.0,102.0,100.0,13.4,1505.2,329.9,-0.8,1.8,2470.762,13.28,0.047,315.9
2021-12-18T06:49:03,42.805,6.029,-0.038,0.02,0.0,101.0,101.0,100.0,13.4,1505.2,327.3,-0.8,1.8,2470.742,13.28,0.042,297.8
2021-12-18T06:52:03,42.805,6.029,-0.024,0.039,-0.014,101.0,102.0,101.0,13.4,1505.2,327.7,-0.7,1.8,2470.744,13.28,0.045,328.4
2021-12-18T06:55:03,42.805,6.029,-0.019,0.029,0.006,101.0,102.0,101.0,13.4,1505.2,328.5,-0.7,1.8,2470.718,13.28,0.034,326.8
2021-12-18T06:58:03,42.805,6.029,-0.005,0.024,-0.007,102.0,102.0,100.0,13.4,1505.2,330.6,-0.7,1.8,2470.736,13.28,0.024,348.2
2021-12-18T07:04:03,42.805,6.029,-0.01,0.052,0.014,101.0,102.0,100.0,13.4,1505.2,328.5,-0.8,1.8,2470.76,13.28,0.052,349.1
2021-12-18T07:07:03,42.805,6.029,-0.016,0.034,0.007,102.0,102.0,100.0,13.4,1505.2,325.9,-0.8,1.8,2470.724,13.28,0.037,334.8
2021-12-18T07:10:03,42.805,6.029,-0.01,-0.006,-0.04,103.0,101.0,100.0,13.4,1505.2,329.8,-0.8,1.8,2470.756,13.28,0.011,239.0
2021-12-18T07:13:03,42.805,6.029,-0.031,0.035,-0.003,101.0,102.0,100.0,13.4,1505.2,331.1,-0.7,1.8,2470.745,13.28,0.046,318.5
2021-12-18T07:16:03,42.805,6.029,-0.033,0.033,-0.009,101.0,102.0,100.0,13.4,1505.2,327.5,-0.8,1.8,2470.727,13.28,0.046,315.0
2021-12-18T07:19:03,42.805,6.029,-0.032,0.036,0.01,102.0,102.0,99.0,13.3,1505.2,329.1,-0.8,1.8,2470.715,13.28,0.048,318.4
2021-12-18T07:22:03,42.805,6.029,-0.003,0.036,0.014,100.0,102.0,101.0,13.4,1505.2,330.6,-0.8,1.8,2470.749,13.28,0.036,355.2
2021-12-18T07:25:03,42.805,6.029,-0.004,0.042,0.032,101.0,101.0,101.0,13.4,1505.2,329.4,-0.7,1.8,2470.736,13.28,0.042,354.6
2021-12-18T07:28:03,42.805,6.029,-0.031,0.049,0.003,100.0,103.0,101.0,13.3,1505.2,331.5,-0.7,1.8,2470.724,13.28,0.057,327.7
2021-12-18T07:31:03,42.805,6.029,-0.024,0.026,-0.025,102.0,102.0,100.0,13.4,1505.2,324.6,-0.8,1.8,2470.756,13.28,0.035,317.3
2021-12-18T07:34:03,42.805,6.029,-0.017,0.026,0.001,101.0,102.0,100.0,13.4,1505.2,328.7,-0.8,1.8,2470.743,13.28,0.031,326.8
2021-12-18T07:37:03,42.805,6.029,-0.008,0.048,0.021,101.0,102.0,100.0,13.4,1505.2,328.8,-0.8,1.9,2470.737,13.28,0.048,350.5
2021-12-18T07:40:03,42.805,6.029,-0.034,0.042,-0.007,102.0,102.0,100.0,13.4,1505.2,331.4,-0.8,1.8,2470.709,13.28,0.054,321.0
2021-12-18T07:43:03,42.805,6.029,-0.028,0.025,-0.03,101.0,101.0,100.0,13.4,1505.2,328.3,-0.8,1.8,2470.734,13.28,0.037,311.8
2021-12-18T07:46:03,42.805,6.029,-0.033,0.03,-0.012,102.0,101.0,99.0,13.4,1505.2,325.4,-0.7,1.8,2470.731,13.28,0.044,312.3
2021-12-18T07:49:03,42.805,6.029,-0.03,0.029,0.013,100.0,103.0,99.0,13.4,1505.2,331.7,-0.7,1.8,2470.727,13.28,0.041,314.0
2021-12-18T07:52:03,42.805,6.029,-0.015,0.015,-0.01,101.0,102.0,100.0,13.3,1505.2,326.5,-0.8,1.9,2470.729,13.28,0.021,315.0
2021-12-18T07:55:03,42.805,6.029,-0.038,0.018,0.0,100.0,103.0,100.0,13.3,1505.2,325.7,-0.8,1.8,2470.722,13.28,0.042,295.3
2021-12-18T07:58:03,42.805,6.029,-0.042,0.04,-0.012,101.0,101.0,100.0,13.4,1505.2,330.9,-0.8,1.8,2470.719,13.28,0.057,313.6
2021-12-18T08:04:03,42.805,6.029,-0.014,0.048,-0.016,101.0,103.0,99.0,13.4,1505.2,327.0,-0.7,1.8,2470.776,13.28,0.05,343.7
2021-12-18T08:07:03,42.805,6.029,-0.02,0.049,0.006,101.0,102.0,100.0,13.4,1505.2,325.2,-0.8,1.8,2470.746,13.28,0.052,337.8
2021-12-18T08:10:03,42.805,6.029,-0.049,0.043,-0.035,101.0,102.0,99.0,13.4,1505.2,326.4,-0.8,1.9,2470.752,13.28,0.065,311.3
2021-12-18T08:13:03,42.805,6.029,-0.04,0.043,-0.01,101.0,102.0,100.0,13.4,1505.2,328.1,-0.8,1.9,2470.744,13.28,0.058,317.1
2021-12-18T08:16:03,42.805,6.029,-0.022,0.012,0.001,101.0,102.0,99.0,13.4,1505.2,325.2,-0.7,1.8,2470.733,13.28,0.025,298.6
2021-12-18T08:19:03,42.805,6.029,-0.031,0.028,0.037,100.0,102.0,100.0,13.4,1505.2,326.7,-0.7,1.8,2470.742,13.28,0.041,312.1
2021-12-18T08:22:03,42.805,6.029,-0.032,0.031,0.003,101.0,102.0,100.0,13.4,1505.2,328.5,-0.7,1.8,2470.736,13.28,0.044,314.1
2021-12-18T08:25:03,42.805,6.029,-0.037,0.04,0.016,101.0,101.0,100.0,13.3,1505.2,328.7,-0.7,1.8,2470.728,13.28,0.054,317.2
2021-12-18T08:28:03,42.805,6.029,-0.037,0.043,-0.01,100.0,102.0,100.0,13.4,1505.2,331.5,-0.8,1.8,2470.69,13.28,0.056,319.3
2021-12-18T08:31:03,42.805,6.029,-0.05,0.027,-0.011,102.0,102.0,100.0,13.4,1505.2,329.0,-0.7,1.8,2470.726,13.28,0.056,298.4
2021-12-18T08:34:03,42.805,6.029,-0.021,0.026,-0.016,103.0,102.0,100.0,13.4,1505.2,326.0,-0.8,1.8,2470.712,13.28,0.033,321.1
2021-12-18T08:37:03,42.805,6.029,-0.055,0.051,-0.011,100.0,103.0,99.0,13.4,1505.2,325.8,-0.7,1.8,2470.726,13.28,0.075,312.8
2021-12-18T08:40:03,42.805,6.029,-0.012,0.049,0.008,101.0,101.0,100.0,13.4,1505.2,328.9,-0.7,1.8,2470.712,13.28,0.05,346.2
2021-12-18T08:43:03,42.805,6.029,-0.028,0.022,-0.017,101.0,103.0,100.0,13.4,1505.2,330.7,-0.7,1.8,2470.689,13.28,0.035,308.2
2021-12-18T08:46:03,42.805,6.029,-0.031,0.022,0.013,102.0,102.0,100.0,13.4,1505.2,327.0,-0.8,1.8,2470.695,13.28,0.038,305.4
2021-12-18T08:49:03,42.805,6.029,-0.022,0.011,-0.009,101.0,102.0,99.0,13.4,1505.2,327.6,-0.8,1.8,2470.672,13.28,0.024,296.6
2021-12-18T08:52:03,42.805,6.029,-0.029,0.032,0.0,101.0,102.0,100.0,13.4,1505.2,326.6,-0.7,1.8,2470.673,13.28,0.043,317.8
2021-12-18T08:55:03,42.805,6.029,-0.043,0.046,0.002,102.0,100.0,100.0,13.4,1505.2,329.6,-0.8,1.8,2470.689,13.28,0.062,316.9
2021-12-18T08:58:03,42.805,6.029,-0.035,0.067,0.05,101.0,102.0,100.0,13.4,1505.2,329.1,-0.7,1.8,2470.662,13.28,0.075,332.4
2021-12-18T09:04:03,42.805,6.029,-0.038,0.053,0.011,101.0,102.0,100.0,13.4,1505.2,330.1,-0.7,1.8,2470.737,13.28,0.065,324.4
2021-12-18T09:07:03,42.805,6.029,-0.039,0.042,0.015,101.0,102.0,100.0,13.3,1505.2,325.8,-0.7,1.8,2470.705,13.28,0.057,317.1
2021-12-18T09:10:03,42.805,6.029,-0.011,0.042,0.028,101.0,102.0,100.0,13.4,1505.2,325.0,-0.8,1.8,2470.72,13.28,0.043,345.3
2021-12-18T09:13:03,42.805,6.029,-0.021,0.024,0.0,102.0,102.0,100.0,13.3,1505.2,326.7,-0.8,1.8,2470.711,13.28,0.031,318.8
2021-12-18T09:16:03,42.805,6.029,-0.024,0.03,-0.009,101.0,102.0,101.0,13.3,1505.2,331.1,-0.7,1.8,2470.695,13.28,0.038,321.3
2021-12-18T09:19:03,42.805,6.029,-0.022,0.056,0.019,101.0,104.0,100.0,13.3,1505.2,324.1,-0.8,1.8,2470.751,13.28,0.06,338.6
2021-12-18T09:22:03,42.805,6.029,-0.023,0.033,0.006,100.0,105.0,100.0,13.4,1505.2,326.9,-0.7,1.8,2470.728,13.28,0.04,325.1
2021-12-18T09:25:03,42.805,6.029,-0.048,0.022,-0.031,101.0,101.0,100.0,13.3,1505.2,327.2,-0.7,1.8,2470.673,13.28,0.052,294.6
2021-12-18T09:28:03,42.805,6.029,-0.056,0.062,-0.025,101.0,102.0,100.0,13.4,1505.2,327.8,-0.8,1.8,2470.721,13.28,0.083,317.9
2021-12-18T09:31:03,42.805,6.029,-0.026,0.041,-0.008,101.0,101.0,100.0,13.4,1505.2,330.1,-0.8,1.8,2470.724,13.28,0.048,327.6
2021-12-18T09:34:03,42.805,6.029,-0.017,0.044,0.037,101.0,103.0,100.0,13.3,1505.2,327.6,-0.8,1.8,2470.673,13.28,0.047,338.9
2021-12-18T09:37:03,42.805,6.029,-0.037,0.029,-0.008,100.0,101.0,100.0,13.4,1505.2,328.1,-0.8,1.8,2470.688,13.28,0.047,308.1
2021-12-18T09:40:03,42.805,6.029,-0.006,0.025,0.017,101.0,102.0,101.0,13.4,1505.2,328.9,-0.8,1.8,2470.704,13.28,0.025,346.5
2021-12-18T09:43:03,42.805,6.029,-0.036,0.032,-0.03,101.0,102.0,99.0,13.4,1505.2,330.6,-0.7,1.8,2470.649,13.28,0.048,311.6
2021-12-18T09:46:03,42.805,6.029,-0.017,0.028,0.013,100.0,102.0,101.0,13.4,1505.2,331.3,-0.8,1.8,2470.695,13.28,0.032,328.7
2021-12-18T09:49:03,42.805,6.029,-0.029,0.029,0.0,101.0,102.0,100.0,13.4,1505.2,331.1,-0.8,1.8,2470.7,13.28,0.041,315.0
2021-12-18T09:52:03,42.805,6.029,-0.031,0.032,-0.041,102.0,103.0,99.0,13.4,1505.2,329.1,-0.8,1.8,2470.657,13.28,0.044,315.9
2021-12-18T09:55:03,42.805,6.029,-0.035,0.028,-0.004,101.0,102.0,101.0,13.3,1505.2,329.5,-0.7,1.8,2470.676,13.28,0.044,308.7
2021-12-18T09:58:03,42.805,6.029,-0.013,0.05,0.017,101.0,105.0,100.0,13.4,1505.2,329.9,-0.7,1.8,2470.652,13.28,0.051,345.4